MUCUMUCF

Guest
Details From MUCU - Santiago de Cuba Antonio Maceo Intl
To MUCF - JAIME GONZALEZ
Flight Number -
Tags generated
Created
Modified
Stats Distance 290 nm / 536 km
Max Altitude 34,000 ft / 10,363 m
Waypoints 5
Social Downloads 1
Likes 0
Share VATSIM

Download

Looking for another format? Having issues loading an existing format? Contact us
Advertisement - Login to hide

Notes

Basic altitude profile: - Ascent Rate: 2500ft/min - Ascent Speed: 250kts - Cruise Altitude: 35000ft - Cruise Speed: 420kts - Descent Rate: 1500ft/min - Descent Speed: 250kts Options: - Use NATs: yes - Use PACOTS: yes - Use low airways: yes - Use high airways: yes

Route

MUCU CANEY J2 UCF MUCF

ID Type Via Altitude Latitude Longitude Leg Dist Tot Dist Heading (true) Name
O MUCU APT - 0 ft / 0 m 19.97234˚ -75.83552˚ - 0 nm - Santiago de Cuba Antonio Maceo Intl
CANEY FIX - 34,000 ft / 10,363 m 20.55389˚ -77.53306˚ 101 nm 101 nm 290° / 290° -
JUCRO FIX J2 (AWY-HI) 24,200 ft / 7,376 m 21.15889˚ -78.59972˚ 70 nm 171 nm 301° / 301° -
UCF VOR J2 (AWY-LO) 5,000 ft / 1,524 m 22.15468˚ -80.40606˚ 117 nm 289 nm 301° / 300° CIENFUEGOS VOR-DME
O MUCF APT - 0 ft / 0 m 22.14985˚ -80.41431˚ 0 nm 289 nm 238° / 238° JAIME GONZALEZ

Altitude Profile

Advertisement - Login to hide

Weather


0- 5 10 15 20 25 30 35+ Temperature / ° C

Clouds and Precipitation
Forecast for 2018-05-22 12:00 UTC. Updated 3 hours ago

Ground ~20,000 ft ~40,000 ft Winds

MUCU

Details ICAO MUCU (SCU)
Name Santiago de Cuba Antonio Maceo Intl
Region Cuba
Timezone America/Havana (UTC-4.0)
Stats Elevation 249 ft / 76 m (AMSL)
Location 19.972337° -75.835517°
Runways 2
Magnetic Variation 8.445° W

METAR

MUCU 221350Z 14005KT 110V180 9000 SCT020 SCT070 28/19 Q1017

Decode

TAF

Not found

Departure Runways

ID Width Length Bearing (true) Bearing (mag) Surface Threshold Offset Overrun Length
09 148 ft / 45 m 13,107 ft / 3,995 m 89.29° 97.74° Asphalt 985 ft / 300 m 0 ft / 0 m
18 148 ft / 45 m 4,272 ft / 1,302 m 179.40° 187.85° Asphalt 0 ft / 0 m 0 ft / 0 m
27 148 ft / 45 m 13,107 ft / 3,995 m 269.30° 277.75° Asphalt 980 ft / 299 m 340 ft / 104 m
36 148 ft / 45 m 4,272 ft / 1,302 m 359.40° 7.85° Asphalt 0 ft / 0 m 0 ft / 0 m

MUCF

Details ICAO MUCF (CFG)
Name JAIME GONZALEZ
Region Cuba
Timezone America/Havana (UTC-4.0)
Stats Elevation 102 ft / 31 m (AMSL)
Location 22.149850° -80.414310°
Runways 1
Magnetic Variation 6.059° W

METAR

MUCF 221350Z 08006KT 8000 FEW020 SCT060 OVC200 26/23 Q1016

Decode

TAF

Not found

Destination Runways

ID Width Length Bearing (true) Bearing (mag) Surface Threshold Offset Overrun Length
02 148 ft / 45 m 7,908 ft / 2,410 m 15.87° 21.93° Asphalt 0 ft / 0 m 120 ft / 37 m
20 148 ft / 45 m 7,908 ft / 2,410 m 195.87° 201.93° Asphalt 0 ft / 0 m 0 ft / 0 m